Stations météo

réclame
Mon MeteoGroup
Lugo/Rozas, Espagne (8008): Température de l'air & dewpoint: 01.08.2020 23:00:00 - 07.08.2020 23:00:00 (CEST)Lugo/Rozas, Espagne (8008): Vitesse du vent: 01.08.2020 23:00:00 - 07.08.2020 23:00:00 (CEST)Lugo/Rozas, Espagne (8008): Direction du vent: 01.08.2020 23:00:00 - 07.08.2020 23:00:00 (CEST)Lugo/Rozas, Espagne (8008): reduced air pressure: 01.08.2020 23:00:00 - 07.08.2020 23:00:00 (CEST)Lugo/Rozas, Espagne (8008): visibility: 01.08.2020 23:00:00 - 07.08.2020 23:00:00 (CEST)Lugo/Rozas, Espagne (8008): Quantités de précipitations: 01.08.2020 23:00:00 - 07.08.2020 23:00:00 (CEST)
Date & Time tt [°C] td [°C] ff [km/h] ff [knt] dd ppp [hPa] vv [km] rr [mm]
07.08.2020 23:00:00 17,8 14,7 2 1 NNE 1021,0 20 -
07.08.2020 22:00:00 19,2 13,6 5 3 NE 1019,9 20 0,0
07.08.2020 21:00:00 21,8 10,9 9 5 NE 1019,0 20 0,0
07.08.2020 20:00:00 24,0 12,0 13 7 ENE 1018,1 20 -
07.08.2020 19:00:00 26,7 14,8 11 6 ENE 1017,1 20 0,0
07.08.2020 18:00:00 29,5 18,3 11 6 NE 1015,9 20 0,0
07.08.2020 17:00:00 31,9 14,5 8 4 WNW 1015,2 20 -
07.08.2020 16:00:00 30,5 15,8 5 3 NNW 1016,0 20 0,0
07.08.2020 15:00:00 28,7 16,6 5 3 NW 1016,3 20 0,0
07.08.2020 14:00:00 26,2 15,0 4 2 WNW 1017,0 20 -
07.08.2020 13:00:00 24,1 17,1 5 3 WSW 1017,5 20 0,0
07.08.2020 12:00:00 20,9 17,1 4 2 SE 1018,1 20 0,0
07.08.2020 11:00:00 19,9 17,3 4 2 NW 1018,1 20 -
07.08.2020 10:00:00 19,1 17,6 5 3 NW 1017,8 17 0,0
07.08.2020 09:00:00 19,2 18,2 2 1 N 1017,1 6 0,0
07.08.2020 08:00:00 19,2 17,9 2 1 N 1016,5 8 -
07.08.2020 07:00:00 19,4 18,1 2 1 NW 1015,8 10 0,0
07.08.2020 06:00:00 19,4 18,2 4 2 WSW 1015,4 9 0,0
07.08.2020 05:00:00 19,3 18,3 4 2 ENE 1015,6 7 -
07.08.2020 04:00:00 19,4 18,4 4 2 NE 1015,6 7 0,0
07.08.2020 03:00:00 19,7 18,5 4 2 N 1015,7 8 0,0
07.08.2020 02:00:00 19,6 18,4 4 2 NE 1015,9 8 -
07.08.2020 01:00:00 20,0 18,0 5 3 NW 1015,7 16 0,0
07.08.2020 00:00:00 21,2 17,6 2 1 W 1015,0 20 0,0
06.08.2020 23:00:00 22,9 17,1 2 1 W 1014,1 20 -
06.08.2020 22:00:00 26,4 17,2 2 1 SW 1012,6 20 0,0
06.08.2020 21:00:00 29,4 16,6 2 1 ENE 1011,5 20 0,0
06.08.2020 20:00:00 31,4 16,9 4 2 N 1010,7 20 -
06.08.2020 19:00:00 34,3 17,1 8 4 NE 1009,3 20 0,0
06.08.2020 18:00:00 35,6 15,9 8 4 ENE 1008,3 20 0,0
06.08.2020 17:00:00 35,2 15,5 8 4 E 1008,8 20 -
06.08.2020 16:00:00 36,2 14,8 5 3 NNE 1009,1 20 0,0
06.08.2020 15:00:00 34,4 15,3 5 3 NNE 1009,7 20 0,0
06.08.2020 14:00:00 32,2 17,3 4 2 NW 1010,2 20 -
06.08.2020 13:00:00 28,3 17,5 5 3 NNW 1011,2 20 0,0
06.08.2020 12:00:00 23,8 17,3 5 3 E 1012,3 20 0,0
06.08.2020 11:00:00 20,0 16,2 4 2 NW 1013,3 20 -
06.08.2020 10:00:00 16,7 15,4 4 2 W 1014,0 17 0,0
06.08.2020 09:00:00 14,6 14,4 2 1 W 1014,4 1,7 0,0
06.08.2020 08:00:00 13,1 12,8 2 1 S 1014,5 2,3 -
06.08.2020 07:00:00 13,3 13,0 2 1 SSE 1014,6 0,3 0,0
06.08.2020 06:00:00 13,1 12,8 2 1 S 1014,6 1,9 0,0
06.08.2020 05:00:00 12,7 11,6 2 1 SW 1014,7 1,9 -
06.08.2020 04:00:00 13,2 11,9 2 1 SSE 1014,6 16 0,0
06.08.2020 03:00:00 13,9 12,1 2 1 S 1015,2 15 0,0
06.08.2020 02:00:00 14,8 13,0 2 1 SE 1015,4 15 -
06.08.2020 01:00:00 16,0 13,7 2 1 S 1015,3 16 0,0
06.08.2020 00:00:00 17,1 15,1 2 1 NW 1015,2 20 0,0
05.08.2020 23:00:00 18,2 15,8 2 1 NNW 1015,0 20 -
05.08.2020 22:00:00 19,7 16,7 5 3 NE 1014,3 20 0,0
05.08.2020 21:00:00 22,6 17,3 8 4 NE 1013,4 20 0,0
05.08.2020 20:00:00 25,5 17,7 9 5 NE 1012,2 20 -
05.08.2020 19:00:00 28,4 17,9 15 8 ENE 1011,4 20 0,0
05.08.2020 18:00:00 32,0 15,9 11 6 ENE 1010,5 20 0,0
05.08.2020 17:00:00 33,0 8,4 5 3 NNE 1010,6 20 -
05.08.2020 16:00:00 32,6 5,2 5 3 N 1011,3 20 0,0
05.08.2020 15:00:00 30,8 8,5 5 3 NW 1011,8 20 0,0
05.08.2020 14:00:00 28,7 12,2 5 3 NW 1012,7 20 -
05.08.2020 13:00:00 25,8 16,4 4 2 NNW 1013,3 19 0,0
05.08.2020 12:00:00 21,6 15,7 5 3 NNW 1014,3 16 0,0
05.08.2020 11:00:00 17,1 14,4 4 2 WNW 1015,5 8 -
05.08.2020 10:00:00 13,4 12,9 4 2 WSW 1016,4 0,8 0,0
05.08.2020 09:00:00 12,1 12,1 2 1 SSE 1016,4 0,3 0,0
05.08.2020 08:00:00 11,1 10,8 2 1 SSE 1016,3 0,9 -
05.08.2020 07:00:00 11,6 11,3 4 2 SSE 1015,6 0,7 0,0
05.08.2020 06:00:00 11,7 11,7 2 1 SE 1015,8 0,3 0,0
05.08.2020 05:00:00 11,3 10,5 2 1 SSW 1016,1 15 -
05.08.2020 04:00:00 11,5 10,9 4 2 WSW 1016,2 7 0,0
05.08.2020 03:00:00 12,1 11,0 2 1 SW 1016,7 20 0,0
05.08.2020 02:00:00 13,1 11,5 2 1 S 1017,0 20 -
05.08.2020 01:00:00 13,8 12,0 2 1 SSW 1017,1 20 0,0
05.08.2020 00:00:00 15,3 12,6 2 1 NW 1017,0 20 0,0
04.08.2020 23:00:00 16,6 13,3 4 2 ENE 1017,0 20 -
04.08.2020 22:00:00 18,6 14,5 5 3 NE 1016,2 20 0,0
04.08.2020 21:00:00 21,1 15,4 5 3 NNE 1015,6 20 0,0
04.08.2020 20:00:00 23,3 15,9 15 8 ENE 1014,9 20 -
04.08.2020 19:00:00 24,8 16,0 15 8 ENE 1014,6 20 0,0
04.08.2020 18:00:00 26,7 16,0 9 5 ENE 1014,6 20 0,0
04.08.2020 17:00:00 28,0 16,0 8 4 NE 1014,6 20 -
04.08.2020 16:00:00 27,9 14,5 8 4 NE 1015,1 20 0,0
04.08.2020 15:00:00 26,7 14,1 5 3 NNW 1015,8 20 0,0
04.08.2020 14:00:00 25,0 14,2 8 4 ENE 1016,6 20 -
04.08.2020 13:00:00 23,7 14,1 8 4 E 1017,4 20 0,0
04.08.2020 12:00:00 22,1 14,2 5 3 N 1018,1 20 0,0
04.08.2020 11:00:00 19,1 14,6 5 3 NNE 1018,9 20 -
04.08.2020 10:00:00 16,2 14,6 4 2 NNE 1019,5 20 0,0
04.08.2020 09:00:00 14,6 14,1 2 1 NNW 1019,8 17 0,0
04.08.2020 08:00:00 13,0 12,5 2 1 ESE 1019,8 10 -
04.08.2020 07:00:00 13,3 12,2 2 1 WSW 1019,8 1,6 0,0
04.08.2020 06:00:00 15,0 13,9 2 1 E 1019,5 16 0,0
04.08.2020 05:00:00 15,4 14,4 2 1 E 1019,6 18 -
04.08.2020 04:00:00 16,0 14,5 2 1 NNE 1019,9 19 0,0
04.08.2020 03:00:00 16,4 15,1 5 3 ENE 1020,1 20 0,0
04.08.2020 02:00:00 16,3 15,0 5 3 ENE 1020,4 20 -
04.08.2020 01:00:00 16,5 15,0 8 4 ENE 1020,3 20 0,0
04.08.2020 00:00:00 16,6 15,1 9 5 ENE 1020,6 20 0,0
03.08.2020 23:00:00 17,0 15,2 9 5 ENE 1020,1 20 -
03.08.2020 22:00:00 17,6 15,0 9 5 ENE 1019,3 20 0,0
03.08.2020 21:00:00 19,4 15,3 8 4 NE 1018,7 20 0,0
03.08.2020 20:00:00 22,1 15,4 13 7 ENE 1017,9 20 -
03.08.2020 19:00:00 25,6 14,4 9 5 NW 1016,9 20 0,0
03.08.2020 18:00:00 25,8 14,0 8 4 NW 1016,7 20 0,0
03.08.2020 17:00:00 24,6 14,1 8 4 NW 1017,2 20 -
03.08.2020 16:00:00 24,6 15,2 5 3 WNW 1017,8 20 0,0
03.08.2020 15:00:00 23,1 14,9 8 4 NW 1018,7 20 0,0
03.08.2020 14:00:00 23,6 14,0 5 3 NW 1018,7 20 -
03.08.2020 13:00:00 21,6 12,4 5 3 NW 1019,6 20 0,0
03.08.2020 12:00:00 19,4 11,2 8 4 WSW 1020,2 20 0,0
03.08.2020 11:00:00 17,3 13,2 8 4 WSW 1020,6 20 -
03.08.2020 10:00:00 16,6 13,3 5 3 SE 1020,7 20 0,0
03.08.2020 09:00:00 13,9 12,8 5 3 SW 1021,4 20 0,0
03.08.2020 08:00:00 12,8 11,9 2 1 SE 1021,3 18 -
03.08.2020 07:00:00 13,2 11,9 2 1 SE 1021,1 20 0,0
03.08.2020 06:00:00 13,9 12,6 4 2 WNW 1020,6 14 0,0
03.08.2020 05:00:00 13,5 12,7 2 1 S 1021,0 16 -
03.08.2020 04:00:00 12,7 12,1 2 1 N 1021,7 19 0,0
03.08.2020 03:00:00 12,3 11,5 0 0 N 1021,8 20 0,0
03.08.2020 02:00:00 12,9 11,3 2 1 W 1021,7 19 -
03.08.2020 01:00:00 14,3 12,5 2 1 W 1021,7 20 0,0
03.08.2020 00:00:00 14,9 13,3 2 1 NNE 1021,9 20 0,0
02.08.2020 23:00:00 15,8 13,3 4 2 N 1022,0 20 -
02.08.2020 22:00:00 16,0 12,5 4 2 ENE 1021,5 20 0,0
02.08.2020 21:00:00 16,7 12,8 8 4 NE 1021,6 20 0,0
02.08.2020 20:00:00 18,4 13,0 9 5 NE 1020,9 20 -
02.08.2020 19:00:00 21,3 14,0 5 3 NNE 1020,5 20 0,0
02.08.2020 18:00:00 23,0 14,0 8 4 NE 1019,8 20 0,0
02.08.2020 17:00:00 23,7 13,8 5 3 NNW 1019,8 20 -
02.08.2020 16:00:00 22,5 13,6 11 6 NE 1020,5 20 0,0
02.08.2020 15:00:00 21,8 12,9 11 6 ENE 1021,2 20 0,0
02.08.2020 14:00:00 22,0 13,4 8 4 NNE 1021,7 20 -
02.08.2020 13:00:00 21,7 13,6 5 3 NNE 1021,7 20 0,0
02.08.2020 12:00:00 19,1 13,3 9 5 ENE 1022,4 20 0,0
02.08.2020 11:00:00 18,9 13,3 8 4 NE 1022,4 20 -
02.08.2020 10:00:00 17,4 13,9 8 4 NE 1022,8 20 0,0
02.08.2020 09:00:00 14,8 13,5 4 2 N 1022,9 20 0,0
02.08.2020 08:00:00 13,8 12,7 2 1 NNE 1023,1 20 -
02.08.2020 07:00:00 14,3 12,7 2 1 NE 1022,8 20 0,0
02.08.2020 06:00:00 15,0 13,0 2 1 NNE 1022,7 20 0,0
02.08.2020 05:00:00 15,4 13,4 4 2 NE 1022,4 20 -
02.08.2020 04:00:00 15,4 13,1 5 3 NE 1022,5 20 0,0
02.08.2020 03:00:00 15,2 13,2 5 3 NE 1022,9 20 0,0
02.08.2020 02:00:00 15,3 13,0 8 4 NE 1023,0 20 -
02.08.2020 01:00:00 15,7 13,5 8 4 ENE 1023,4 20 0,0
02.08.2020 00:00:00 15,7 13,5 4 2 NE 1023,5 20 0,0
01.08.2020 23:00:00 16,4 13,7 9 5 ENE 1023,4 20 -

tt = Température de l'air
td = dewpoint
ff = Vitesse du vent
dd = Direction du vent
ppp = reduced air pressure
vv = visibility
rr = Quantités de précipitations

stations d'obs. à proximité